www.pogodaiklimat.ru

Погода и климат >> Архив погоды >> Кот-д'Ивуар >> Ганьоа


ПОГОДА в Ганьоа

  • Прогноз погоды в Ганьоа
  • Монитор погоды в Ганьоа

АРХИВ ПОГОДЫ в Ганьоа

Время (UTC), дата Ветер
(напр.,м/с)
 
Видим.   Явления Облачность Т
(С)
Тd
(С)
f
(%)
Тe
(С)
Тes
(С)
Комфортность P
(гПа)
Po
(гПа)
Тmin
(С)
Tmax
(С)
R
(мм)
R24
(мм)
S
(см)
12 18.06 Ю 3 10 км 8/8 400 м
[Cu med, cong]
+29.4 +24.0 73 +41 +44 опасность
перегрева
1014.0 991.2
15 18.06 ЮВ 2 10 км 6/6 400 м
[Cu med, cong]
+32.0 +23.5 61 +43 +48 опасность
перегрева
1010.9 988.4
18 18.06 ЮВ 3 10 км 8/8 400 м
[Cb cap]
+29.5 +24.4 74 +41 +42 опасность
перегрева
1011.1 988.4 +33.0
21 18.06 Ю 2 10 км в посл. час гроза 6/4 400 м
[Sc Ci sp]
+26.5 +24.1 87 +37 +37 очень
душно
1013.4 990.4
00 19.06 штиль 0 10 км {гроза} 3/0
[Ci sp]
+24.4 +22.9 91 +32 +32 очень
душно
1014.1 990.9
03 19.06 ЮЗ 2 4000 м дымка 6/6 400 м
[Sc]
+23.7 +23.4 98 +32 +32 очень
душно
1013.2 990.0
06 19.06 З 2 4000 м дымка 9/9 400 м
[Sc]
+24.0 +23.6 98 +33 +33 очень
душно
1014.2 991.0 +23.4
09 19.06 ЮЗ 3 6000 м 9/9 400 м
[Sc]
+26.5 +23.6 84 +36 +37 очень
душно
1014.7 991.7
12 19.06 Ю 2 8000 м 8/8 400 м
[Cu med, cong]
+29.5 +23.0 68 +39 +43 очень
душно
1014.3 991.5
15 19.06 ЮЗ 2 10 км 6/6 400 м
[Cu med, cong]
+32.0 +25.0 67 +46 +51 опасность
перегрева
1011.0 988.5
18 19.06 штиль 0 10 км 8/6 400 м
[Cu med, cong Ac trans]
+31.0 +24.7 69 +44 +44 опасность
перегрева
1011.4 988.8 +32.9
21 19.06 Ю 2 8000 м {гроза} 8/8 400 м
[Cu med, cong]
+24.0 +23.7 98 +33 +33 очень
душно
1013.5 990.3
06 20.06 ЮЗ 2 4000 м дымка 9/9 400 м
[Sc]
+24.4 +23.8 96 +33 +33 очень
душно
1013.4 990.3 +21.9 13
09 20.06 З 3 6000 м в посл. час туман 9/9 400 м
[Cu med, cong]
+27.0 +24.4 86 +38 +39 очень
душно
1014.1 991.2
12 20.06 ЮЗ 3 10 км {туман} 8/8 400 м
[Cu med, cong]
+30.5 +23.8 67 +42 +45 опасность
перегрева
1013.0 990.3
15 20.06 ЮЗ 3 10 км 8/8 400 м
[Cu med, cong]
+32.8 +25.5 66 +48 +50 опасность
перегрева
1010.8 988.4
18 20.06 Ю 2 10 км 8/6 400 м
[Cb cap]
+29.4 +24.9 77 +42 +42 опасность
перегрева
1011.4 988.7 +33.1
21 20.06 штиль 0 10 км зарница 3/3 400 м
[Cb cap]
+25.6 +24.0 91 +35 +35 очень
душно
1013.6 990.6
00 21.06 ЮЗ 2 10 км 8/8 400 м
[Cu med, cong]
+24.5 +23.8 96 +33 +33 очень
душно
1015.3 992.1
03 21.06 штиль 0 8000 м 9/9 400 м
[Sc]
+24.5 +23.9 96 +33 +33 очень
душно
1013.5 990.4
06 21.06 ЮЗ 2 4000 м дымка 9/9 400 м
[Sc]
+24.7 +23.8 95 +34 +34 очень
душно
1014.5 991.3 +23.9
09 21.06 ЮЗ 2 8000 м 8/8 400 м
[Sc]
+26.8 +23.9 84 +37 +39 очень
душно
1015.4 992.4
12 21.06 ЮЗ 2 10 км 8/8 400 м
[Cu med, cong]
+30.6 +24.9 72 +44 +48 опасность
перегрева
1013.7 991.0
15 21.06 Ю 3 10 км 9/9 400 м
[Cb cap]
+32.2 +23.9 62 +44 +45 опасность
перегрева
1011.4 988.9
18 21.06 З 4 6000 м гроза, ливневой дождь 9/9 400 м
[Cb cap]
+28.6 +25.7 84 +42 +42 опасность
перегрева
1011.8 989.0 +32.2 0.9
21 21.06 ЮЗ 2 8000 м зарница {гроза} 3/3 400 м
[Cb cap]
+25.5 +23.3 88 +34 +34 очень
душно
1014.6 991.5
00 22.06 штиль 0 8000 м {гроза} 5/5 400 м
[Sc]
+24.0 +23.1 95 +32 +32 очень
душно
1015.1 991.9 0.1
03 22.06 штиль 0 8000 м 9/9 400 м
[Sc]
+23.6 +23.2 98 +32 +32 очень
душно
1013.9 990.7
06 22.06 штиль 0 6000 м 9/9 180 м
[Sc]
+23.5 +23.4 99 +32 +32 очень
душно
1014.1 990.9 +23.0 1
09 22.06 Ю 2 8000 м 9/9 400 м
[Cu med, cong]
+26.0 +23.8 88 +36 +36 очень
душно
1015.1 992.0
12 22.06 С 3 10 км в посл. час дождь 9/9 400 м
[Cu med, cong]
+28.3 +23.6 76 +39 +40 очень
душно
1014.9 992.0 0.2
15 22.06 СЗ 3 10 км 8/8 400 м
[Cu med, cong]
+31.5 +24.5 66 +44 +46 опасность
перегрева
1011.5 988.9
18 22.06 З 3 10 км 6/6 400 м
[Cb cap]
+30.5 +22.6 63 +40 +40 очень
душно
1010.2 987.6 +32.5
21 22.06 Ю 2 8000 м гроза, ливневой дождь 8/8 400 м
[Cb cap]
+25.9 +24.0 89 +36 +36 очень
душно
1013.3 990.3
00 23.06 ЮЗ 2 8000 м {гроза, дождь} 10/10 400 м
[Sc]
+24.5 +23.0 91 +32 +32 очень
душно
1013.9 990.7 0.1
03 23.06 З 3 8000 м 9/9 400 м
[Sc]
+24.2 +23.2 94 +32 +32 очень
душно
1012.1 989.0
06 23.06 З 3 8000 м 9/9 400 м
[Sc]
+24.3 +23.1 93 1012.8 +23.7 0.3
09 23.06 З 3 8000 м 9/9 400 м
[Sc]
+25.5 +23.2 87 +34 +35 очень
душно
1013.0 989.9
12 23.06 З 4 10 км 8/8 400 м
[Cu med, cong]
+29.0 +23.3 71 +39 +42 очень
душно
1012.0 989.2
15 23.06 ЮЗ 3 10 км 9/9 400 м
[Cu med, cong]
+29.5 +22.7 67 +39 +40 очень
душно
1010.2 987.5
18 23.06 Ю 3 10 км 8/8 400 м
[Cb cap]
+27.0 +23.4 81 +37 +37 очень
душно
1010.8 987.9 +31.0
21 23.06 ЮЗ 2 10 км зарница 9/9 400 м
[Cb cap]
+24.5 +23.5 94 +33 +33 очень
душно
1013.5 990.4
00 24.06 ЮЗ 1 8000 м 9/9 400 м
[Sc]
+24.0 +23.3 96 +32 +32 очень
душно
1013.0 989.8
03 24.06 Ю 2 8000 м 9/9 400 м
[Sc]
+23.9 +23.3 96 +32 +32 очень
душно
1012.4 989.2
06 24.06 ЮЗ 2 8000 м 9/9 180 м
[Sc]
+23.5 +23.1 98 +31 +31 очень
душно
1012.3 989.1 +23.0
09 24.06 ЮЗ 3 8000 м 10/10 180 м
[Sc]
+25.3 +23.4 89 +34 +34 очень
душно
1013.5 990.4
12 24.06 З 5 10 км 9/9 400 м
[Cu med, cong]
+27.7 +23.2 77 +37 +38 очень
душно
1012.4 989.5
15 24.06 З 2 10 км 6/6 400 м
[Cu med, cong]
+31.4 +24.5 67 +44 +49 опасность
перегрева
1010.0 987.5
18 24.06 ЮЗ 2 8000 м сильн. гроза, ливневой дождь 9/9 400 м
[Cb cap]
+25.3 +24.9 98 +36 +36 очень
душно
1010.7 987.7 +31.0 29
21 24.06 ЮЗ 3 8000 м {гроза, дождь} 6/6 400 м
[Sc]
+23.8 +23.4 98 +32 +32 очень
душно
1012.4 989.2
00 25.06 ЮЗ 1 8000 м {гроза, дождь} 9/9 400 м
[Sc]
+23.5 +23.1 98 +31 +31 очень
душно
1013.0 989.8 0.0
03 25.06 штиль 0 8000 м 9/8 400 м
[Sc Ac As]
+23.4 +23.0 98 +33 +33 очень
душно
1011.6 988.4
06 25.06 З 2 8000 м 9/8 400 м
[Sc Ac As]
+23.5 +23.1 98 +31 +31 очень
душно
1012.2 989.0 +23.0 29
09 25.06 СВ 2 8000 м 10/10 180 м
[Sc]
+23.5 +21.6 89 +30 +30 очень
душно
1014.1 990.8

 

Местоположение метеостанции Ганьоа (Кот-д'Ивуар): широта 6.13 долгота -5.95 высота над уровнем моря 210 м.

В архиве по умолчанию представлена погода в Ганьоа за последнюю неделю. Архивные данные за месяц целиком и за предыдущие месяцы, начиная с января 2011 года, Вы можете получить, выбрав интересующий диапазон дат из раскрывающегося списка и нажав кнопку "Ввод!".


*Определитесь, кто Вы:
робот инопланетянин человек

Внимание! Время в таблицах - всемирное. Для получения местного времени необходимо прибавить поправку, которая равна 0 ч.

Смотрите также архив погоды в соседних городах и на ближайших метеорологических станциях:

Погода в Далоа (Кот-д'Ивуар) (100 км)
Погода в Ямусукро (Кот-д'Ивуар) (108 км)
Погода в Сассандре (Кот-д'Ивуар) (132 км)
Погода в Димбокро (Кот-д'Ивуар) (150 км)
Погода в Сан-Педро (Кот-д'Ивуар) (172 км)
Погода в Буаке (Кот-д'Ивуар) (203 км)
Погода в Мане (Кот-д'Ивуар) (222 км)
Погода в Абиджане (Кот-д'Ивуар) (244 км)
Погода в Табу (Кот-д'Ивуар) (247 км)
Погода в Адиаке (Кот-д'Ивуар) (307 км)

Пояснения к столбцам:

Ветер - указаны скорость ветра в м/с - средняя за 10 мин, порывы в срок и между сроками (в фигурных скобках) и направление, откуда дует ветер: С - северный, СВ - северо-восточный, В - восточный, ЮВ - юго-восточный, Ю - южный, ЮЗ - юго-западный, З - западный, СЗ - северо-западный.
Видимость - горизонтальная дальность видимости в метрах или километрах. При видимости от 1 до 10 км при отсутствии осадков обычно наблюдается дымка, при ухудшении видимости до 1 км и менее - туман. В сухую погоду видимость может ухудшаться дымом, пылью или мглою.
Явления - указаны атмосферные явления, наблюдавшиеся в срок или в последний час перед сроком; фигурными скобками обозначены явления, наблюдавшиеся между сроками (за 1-3 часа до срока); квадратными скобками обозначены град или гололедные отложения с указанием их диаметра в мм.
Облачность - указаны через наклонную черту общая и нижняя облачность в баллах и высота нижней границы облаков в метрах; квадратными скобками обозначены формы облаков: Ci - перистые, Cs - перисто-слоистые, Cc - перисто-кучевые, Ac - высококучевые, As - высокослоистые, Sc - слоисто-кучевые, Ns - слоисто-дождевые, Cu - кучевые, Cb - кучево-дождевые. Подробнее классификацию облаков см. в Атласе облаков (PDF).
T - Температура воздуха - температура, измеренная на высоте 2 м над землей.
Td - Температура точки росы - температура, при понижении до которой содержащийся в воздухе водяной пар достигнет насыщения.
f - Относительная влажность воздуха - влажноcть воздуха, измеренная на высоте 2 м над землей.
Te - Эффективная температура - температура, которую ощущает одетый по сезону человек в тени. Характеристика душности погоды. При расчете учитывается влияние влажности воздуха и скорости ветра на теплоощущения человека.
Tes - Эффективная температура на солнце - температура, которую ощущает человек, с поправкой на солнечный нагрев. Характеристика знойности погоды. Зависит от высоты солнца над горизонтом, облачности и скорости ветра. Ночью, в пасмурную погоду, а также при ветре 12 м/с и более поправка равна нулю.
P - Атмосферное давление - приведенное к уровню моря атмосферное давление.
Po - Атмосферное давление - измеренное на уровне метеостанции атмосферное давление.
Tmin - Минимальная температура - минимум температуры воздуха на высоте 2 м над землей.
Tmax - Максимальная температура - максимум температуры воздуха на высоте 2 м над землей.
R - Количество осадков - Количество выпавших осадков за период времени, мм. При наведении курсора мыши на число - период времени, за который выпало указанное количество осадков.
R24 - Количество осадков - Количество выпавших осадков за 24 часа, мм.
S - Снежный покров - Высота снежного покрова, см. При наведении курсора мыши на число - состояние снежного покрова и степень покрытия местности в баллах.